Location: Unspecified
(0.0000°N, 0.0000°E)
Time: 05:10:38
(UTC+00:00)

Tiros 1 - All Passes

Search period start: 24 May 2015 00:00
Search period end: 03 June 2015 00:00
Orbit: 631 x 666 km, 48.4° (Epoch: 23 May)

Date Brightness Start Highest point End Pass type
(mag) Time Alt. Az. Time Alt. Az. Time Alt. Az.
24 May - 09:25:48 10° SSE 09:28:37 16° SE 09:31:39 10° E daylight
24 May - 11:06:20 10° WSW 11:10:49 41° NW 11:15:18 10° NNE daylight
24 May - 21:38:07 10° N 21:42:04 28° NE 21:46:05 10° ESE night (unlit)
24 May - 23:20:33 10° WNW 23:24:13 22° SW 23:27:45 10° S night (unlit)
25 May - 09:50:41 10° SSW 09:55:17 52° SE 09:59:56 10° NE daylight
25 May - 11:35:19 10° WNW 11:37:34 13° NW 11:39:32 10° NNW daylight
25 May - 22:03:58 10° NW 22:08:39 84° SW 22:13:18 10° SE night (unlit)
26 May - 08:37:09 10° SSE 08:39:37 14° SE 08:42:19 10° E daylight
26 May - 10:17:17 10° WSW 10:21:50 45° NW 10:26:23 10° NNE daylight
26 May - 20:49:15 10° N 20:53:05 25° NE 20:56:59 10° ESE visible
26 May - 22:31:23 10° WNW 22:35:14 24° SW 22:38:58 10° S night (unlit)
27 May - 09:01:47 10° SSW 09:06:18 46° SE 09:10:53 10° NE daylight
27 May - 10:45:56 10° W 10:48:33 14° NW 10:50:56 10° NNW daylight
27 May - 21:14:58 10° NW 21:19:41 87° NE 21:24:21 10° SE visible
28 May - 07:48:35 10° SSE 07:50:36 13° SE 07:52:55 10° ESE daylight
28 May - 09:28:16 10° SW 09:32:51 50° NW 09:37:27 10° NNE daylight
28 May - 20:00:25 10° N 20:04:06 23° NE 20:07:51 10° ESE visible
28 May - 21:42:15 10° WNW 21:46:15 27° SW 21:50:09 10° S night (unlit)
29 May - 08:12:53 10° SSW 08:17:19 42° SE 08:21:49 10° ENE daylight
29 May - 09:56:38 10° W 09:59:32 15° NW 10:02:15 10° NNW daylight
29 May - 20:25:59 10° NW 20:30:42 79° NE 20:35:22 10° SE visible
30 May - 07:00:06 10° SSE 07:01:36 12° SE 07:03:24 10° ESE daylight
30 May - 08:39:15 10° SW 08:43:52 55° NW 08:48:30 10° NNE daylight
30 May - 19:11:35 10° N 19:15:05 21° NE 19:18:43 10° E visible
30 May - 20:53:07 10° WNW 20:57:16 30° SW 21:01:19 10° S visible
31 May - 07:24:00 10° SSW 07:28:19 37° SE 07:32:44 10° ENE daylight
31 May - 09:07:23 10° W 09:10:31 17° NW 09:13:30 10° N daylight
31 May - 19:37:00 10° NNW 19:41:43 71° NE 19:46:23 10° SE visible
01 Jun - 06:11:59 10° SE 06:12:36 10° SE 06:13:31 10° ESE daylight
01 Jun - 07:50:14 10° SW 07:54:52 61° NW 07:59:32 10° NNE daylight
01 Jun - 18:22:47 10° N 18:26:06 19° NE 18:29:32 10° E visible
01 Jun - 20:04:00 10° WNW 20:08:16 33° SW 20:12:27 10° SSE visible
02 Jun - 06:35:07 10° SSW 06:39:20 34° SE 06:43:38 10° ENE daylight
02 Jun - 08:18:10 10° W 08:21:31 19° NW 08:24:44 10° N daylight
02 Jun - 18:48:02 10° NNW 18:52:43 64° NE 18:57:23 10° SE visible
